• Processing (Info)

  • MPEC 2023-H243 : 2023 HV6

    The following Minor Planet Electronic Circular may be linked-to from your own Web pages, but must not otherwise be redistributed electronically.

    A form allowing access to any MPEC is at the bottom of this page.


    Read MPEC 2023-H242 Read MPEC 2023-H244


    M.P.E.C. 2023-H243                               Issued 2023 April 29, 11:07 UT
    
         The Minor Planet Electronic Circulars contain information on unusual
             minor planets, routine data on comets and natural satellites,
             and occasional editorial announcements.  They are published
        on behalf of Division F of the International Astronomical Union by the
              Minor Planet Center, Smithsonian Astrophysical Observatory,
                              Cambridge, MA 02138, U.S.A.
    			  
                 Prepared using the Tamkin Foundation Computer Network
    
                                  MPC@CFA.HARVARD.EDU
                URL https://www.minorplanetcenter.net/    ISSN 1523-6714
    
                                    2023 HV6                                 
    
    
    Observations:
         K23H06V* C2023 04 24.43703 17 12 39.33 +45 17 24.9          17.57RUEH243I41
         K23H06V  C2023 04 24.43738 17 12 39.57 +45 16 58.7          17.57RUEH243I41
         K23H06V  C2023 04 24.44800 17 12 45.35 +45 03 36.8          17.55RUEH243I41
         K23H06V  C2023 04 24.44835 17 12 45.57 +45 03 10.6          17.55RUEH243I41
         K23H06V  C2023 04 24.47583 17 13 00.52 +44 28 10.9          18.14gUEH243I41
         K23H06V  C2023 04 24.47618 17 13 00.71 +44 27 43.9          18.14gUEH243I41
         K23H06V KB2023 04 24.92129117 19 41.37 +34 02 16.3          17.3 GVEH243D03
         K23H06V KB2023 04 24.92248417 19 42.13 +34 00 30.4          17.0 GVEH243D03
         K23H06V KB2023 04 24.92366517 19 42.83 +33 58 45.9          17.4 GVEH243D03
         K23H06V  C2023 04 25.43428 17 25 02.38 +20 29 37.8          17.1 GVEH243703
         K23H06V  C2023 04 25.44902 17 25 07.68 +20 05 14.9          17.6 GVEH243703
         K23H06V |C2023 04 29.21101 17 51 11.40 -44 16 02.7          18.6 GVEH243807
         K23H06V |C2023 04 29.21142 17 51 11.43 -44 16 13.1          18.8 GVEH243807
         K23H06V |C2023 04 29.21222 17 51 11.53 -44 16 33.7          19.0 GVEH243807
         K23H06V |C2023 04 29.21262 17 51 11.60 -44 16 43.7          19.0 GVEH243807
         K23H06V |C2023 04 29.21302 17 51 11.64 -44 16 53.6          18.6 GVEH243807
    
    Observer details:
    703 Catalina Sky Survey.  Observer G. J. Leonard.  Measurers B. Gray, D.
        Rankin, F. C. Shelly.  0.68-m Schmidt + 10K CCD.
    807 Cerro Tololo Observatory, La Serena.  Observers T. Linder, R. Holmes, L.
        Horn.  1.00-m f/10.0 astrograph + CCD.
    D03 Rantiga Osservatorio, Tincana.  Observers R. Reszelewski, M. Zolnowski, M.
        Gedek, K. Zukowski, P. Baginska, T. Santana-Ros.  Measurer R. Reszelewski.
        0.36-m f/2.2 reflector + CMO.
    I41 Palomar Mountain--ZTF.  Observers K. Venkataramani, T. Prince, G. Helou,
        Q.-Z. Ye, D. Kulkarni, V. Swain, C. Y. Hsu, Y. Cheng.  Measurers F. Masci,
        D. Shupe, K. Venkataramani, Q.-Z. Ye.  1.2-m f/2.44 Oschin-Schmidt + CCD.
    
    Orbital elements:
    2023 HV6                                                 Earth MOID = 0.0091 AU
    Epoch 2023 Feb. 25.0 TT = JDT 2460000.5                 Veres                   
    M 344.58405              (2000.0)            P               Q                  
    n   0.34897772     Peri.  159.42625     -0.95352655     +0.27215655             
    a   1.9980403      Node    37.14860     -0.29761689     -0.78374499             
    e   0.5020556      Incl.   12.36333     -0.04702449     -0.55827825             
    P   2.82           H   24.91          G   0.15           U   7                  
    Residuals in seconds of arc
    230424 I41  0.6+  0.5-    230424 D03  1.2-  0.5-    230429 807  0.1-  0.0
    230424 I41  1.1+  0.3-    230424 D03  1.2-  0.9-    230429 807  0.1-  0.2-
    230424 I41  0.3+  0.2-    230424 D03  1.8-  0.8-    230429 807  0.2+  0.0
    230424 I41  0.6+  0.1+    230425 703 (0.0   5.1-)   230429 807  0.1+  0.3+
    230424 I41  0.4-  0.6+    230425 703  0.7-  0.1+
    230424 I41  0.5-  0.6+    230429 807  0.2+  0.0
    
    Ephemeris:
    2023 HV6                 a,e,i = 2.00, 0.50, 12                  q = 0.9949
    Date    TT    R. A. (2000) Decl.     Delta      r    Elong.  Phase     V
    2023 03 30    06 55 54.6 +77 09 03   0.1490  1.0042    88.0    83.5    23.7
    ...
    2023 04 14    08 09 23.2 +82 15 29   0.06766 0.9960    82.4    93.8    22.4
    ...
    2023 04 22    16 15 31.5 +75 22 08   0.02400 1.0053    90.2    88.4    19.9
    ...
    2023 04 28    17 44 54.8 -33 21 18   0.01828 1.0183   129.6    49.6    18.1
    2023 04 29    17 49 54.6 -42 45 21   0.02299 1.0209   127.4    51.6    18.7
    2023 04 30    17 53 56.3 -48 50 29   0.02810 1.0237   125.7    53.1    19.2
    ...
    2023 05 06    18 06 20.3 -62 27 56   0.06132 1.0429   122.6    54.5    20.9
    ...
    2023 05 14    18 07 23.7 -66 48 30   0.1069  1.0750   124.7    50.6    22.1
    ...
    2023 05 29    17 50 15.0 -67 44 54   0.1938  1.1514   131.7    41.1    23.3
    
    M. P. C. Staff               (C) Copyright 2023 MPC           M.P.E.C. 2023-H243
    


    Read MPEC 2023-H242 Read MPEC 2023-H244


    MPEC number:

    Enter an MPEC number in one of the following forms:

    • 1997-B01 (the full form)
    • J97B01 (the packed version of the full form)
    • B01 (the abbreviated form)